Estación de Recoleta

Ultimos registro cada 15 minutos 30
Estación Fecha / Hora Temperatura Humedad Lluvia Velocidad Dirección Radiación Presion
30 Recoleta 06-05-2026 07:15 6,7 98 0 0 264 1,9 972,9
29 Recoleta 06-05-2026 07:00 6,8 98,3 0 0 264 0,6 972,7
28 Recoleta 06-05-2026 06:45 6,1 98,1 0 0 264 0,6 972,5
27 Recoleta 06-05-2026 06:30 6,2 97,6 0 0 274 0,6 972,2
26 Recoleta 06-05-2026 06:15 5,9 98,2 0 0 340 0,6 971,8
25 Recoleta 06-05-2026 06:00 6,2 97,5 0 0 324 0,6 971,5
24 Recoleta 06-05-2026 05:45 6,4 97,8 0 0 314 0,6 971,4
23 Recoleta 06-05-2026 05:30 6 97,6 0 0 314 0,6 971,3
22 Recoleta 06-05-2026 05:15 6,3 97,6 0 0 314 0,6 971,4
21 Recoleta 06-05-2026 05:00 6,2 97,8 0 0 314 0,6 971,5
20 Recoleta 06-05-2026 04:45 6,1 97,2 0 0 314 0,6 971,3
19 Recoleta 06-05-2026 04:30 5,8 97,3 0 0 314 0,6 971,3
18 Recoleta 06-05-2026 04:15 6,1 97 0 0 314 0,6 971,2
17 Recoleta 06-05-2026 04:00 7 97 0 0 314 0,6 971,2
16 Recoleta 06-05-2026 03:45 7,2 96,9 0 0 314 0,6 971
15 Recoleta 06-05-2026 03:30 7,5 96,6 0 0 314 0,6 970,9
14 Recoleta 06-05-2026 03:15 7,1 97,2 0 0 314 0,6 971
13 Recoleta 06-05-2026 03:00 7 96,7 0 0 314 0,6 970,9
12 Recoleta 06-05-2026 02:45 7,2 96,9 0 0 314 0,6 970,9
11 Recoleta 06-05-2026 02:30 7,1 96,2 0 0 314 0,6 970,9
10 Recoleta 06-05-2026 02:15 7,8 96,1 0 0 312 0,6 971
9 Recoleta 06-05-2026 02:00 7,6 96 0 0 310 0,6 970,9
8 Recoleta 06-05-2026 01:45 7,7 95,8 0 0 310 0,6 970,7
7 Recoleta 06-05-2026 01:30 7,9 95,6 0 0 310 0,6 970,7
6 Recoleta 06-05-2026 01:15 8,2 95,2 0 0 310 0,6 970,7
5 Recoleta 06-05-2026 01:00 8,6 95,3 0 0 310 0,6 970,5
4 Recoleta 06-05-2026 00:45 8,7 94,8 0 0 310 0,6 970,8
3 Recoleta 06-05-2026 00:30 9,5 94,5 0 0 310 0,6 970,8
2 Recoleta 06-05-2026 00:15 10,2 95,6 0 0 258 0,6 970,6
1 Recoleta 06-05-2026 00:00 9,6 94,8 0 0 251 0,6 970,9